QPF
0.00 0.00 0.00 0.00 0.02 0.03 0.11 0.14 0.03 0.06 0.07 0.04 0.01 0.00 0.03 0.00 0.01 0.00 0.00 0.00 0.00 0.00 0.00 0.11 0.05 0.00 0.00 0.00 0.00 0.00 0.00 0.00 0.00 0.00 0.00 0.00 0.00 0.00 0.00 0.00 0.00 0.00 0.00 0.00 0.00 0.01 0.01 0.00 0.01
0.00 0.00 0.00 0.00 0.01 0.00 0.10 0.16 0.04 0.03 0.00 0.02 0.02 0.00 0.03 0.01 0.00 0.01 0.00 0.00 0.00 0.00 0.00 0.01 0.03 0.00 0.00 0.00 0.00 0.00 0.00 0.00 0.00 0.00 0.00 0.00 0.00 0.00 0.00 0.00 0.00 0.00 0.01 0.01 0.01 0.00 0.00 0.00 0.00
0.00 0.00 0.00 0.00 0.01 0.00 0.05 0.06 0.06 0.04 0.02 0.00 0.00 0.00 0.00 0.00 0.00 0.00 0.00 0.00 0.00 0.00 0.00 0.00 0.01 0.00 0.00 0.00 0.00 0.00 0.03 0.00 0.00 0.00 0.00 0.00 0.00 0.00 0.00 0.00 0.00 0.00 0.00 0.00 0.02 0.01 0.00 0.00 0.00
0.00 0.00 0.00 0.00 0.01 0.03 0.05 0.16 0.05 0.07 0.05 0.01 0.00 0.00 0.00 0.00 0.00 0.00 0.00 0.00 0.00 0.00 0.00 0.00 0.00 0.00 0.00 0.00 0.00 0.01 0.03 0.00 0.00 0.00 0.00 0.00 0.00 0.00 0.00 0.00 0.00 0.00 0.00 0.01 0.03 0.02 0.00 0.00 0.00
0.00 0.00 0.00 0.00 0.05 0.07 0.01 0.07 0.05 0.04 0.00 0.00 0.00 0.00 0.00 0.00 0.00 0.00 0.00 0.00 0.00 0.00 0.00 0.00 0.00 0.00 0.00 0.00 0.00 0.00 0.02 0.01 0.01 0.00 0.00 0.00 0.00 0.00 0.00 0.00 0.00 0.00 0.00 0.02 0.02 0.00 0.00 0.00 0.00
0.00 0.00 0.00 0.00 0.01 0.00 0.00 0.00 0.01 0.00 0.00 0.00 0.00 0.00 0.00 0.00 0.00 0.00 0.00 0.00 0.00 0.00 0.00 0.00 0.00 0.00 0.00 0.00 0.00 0.00 0.03 0.01 0.02 0.00 0.00 0.00 0.00 0.00 0.00 0.00 0.00 0.00 0.00 0.00 0.00 0.00 0.00 0.01 0.02
0.00 0.00 0.00 0.01 0.01 0.00 0.00 0.00 0.00 0.00 0.00 0.00 0.00 0.00 0.00 0.00 0.00 0.00 0.00 0.00 0.00 0.00 0.00 0.00 0.00 0.00 0.00 0.01 0.01 0.02 0.02 0.00 0.01 0.01 0.00 0.00 0.00 0.00 0.00 0.00 0.00 0.00 0.00 0.00 0.03 0.03 0.03 0.00 0.01
0.00 0.00 0.00 0.01 0.02 0.00 0.00 0.00 0.00 0.00 0.00 0.00 0.00 0.00 0.00 0.00 0.00 0.00 0.00 0.00 0.00 0.00 0.00 0.00 0.00 0.00 0.00 0.01 0.01 0.01 0.01 0.00 0.00 0.00 0.00 0.00 0.00 0.13 0.16 0.03 0.00 0.00 0.00 0.00 0.05 0.05 0.04 0.03 0.01
0.00 0.00 0.00 0.01 0.04 0.01 0.00 0.00 0.00 0.00 0.00 0.00 0.00 0.00 0.00 0.00 0.00 0.00 0.00 0.00 0.00 0.00 0.00 0.00 0.00 0.00 0.00 0.00 0.00 0.00 0.01 0.01 0.00 0.00 0.00 0.00 0.03 0.09 0.12 0.12 0.00 0.00 0.00 0.00 0.03 0.04 0.01 0.02 0.01
0.00 0.00 0.00 0.00 0.00 0.00 0.00 0.00 0.00 0.00 0.00 0.00 0.00 0.00 0.00 0.00 0.00 0.00 0.00 0.00 0.00 0.00 0.00 0.00 0.00 0.00 0.00 0.00 0.00 0.00 0.00 0.01 0.00 0.00 0.00 0.00 0.00 0.00 0.00 0.02 0.01 0.01 0.00 0.01 0.03 0.02 0.01 0.02 0.01
0.00 0.00 0.00 0.00 0.00 0.00 0.00 0.00 0.00 0.00 0.00 0.00 0.00 0.00 0.00 0.00 0.00 0.00 0.00 0.00 0.00 0.00 0.00 0.00 0.00 0.00 0.00 0.00 0.00 0.00 0.00 0.00 0.00 0.00 0.00 0.00 0.00 0.00 0.00 0.00 0.00 0.00 0.04 0.08 0.02 0.04 0.12 0.09 0.01
0.00 0.00 0.00 0.00 0.00 0.00 0.00 0.00 0.00 0.00 0.00 0.00 0.00 0.00 0.00 0.00 0.00 0.00 0.00 0.00 0.00 0.00 0.00 0.00 0.00 0.00 0.00 0.00 0.00 0.00 0.00 0.00 0.00 0.01 0.00 0.00 0.00 0.00 0.00 0.00 0.00 0.00 0.02 0.09 0.03 0.00 0.02 0.02 0.01
0.00 0.00 0.00 0.00 0.00 0.00 0.00 0.00 0.00 0.00 0.00 0.00 0.00 0.00 0.00 0.00 0.00 0.00 0.00 0.00 0.00 0.00 0.00 0.00 0.00 0.00 0.00 0.00 0.00 0.00 0.00 0.00 0.00 0.01 0.03 0.00 0.00 0.00 0.00 0.00 0.01 0.00 0.00 0.00 0.00 0.00 0.00 0.03 0.08
0.00 0.00 0.00 0.00 0.00 0.00 0.00 0.00 0.00 0.00 0.00 0.00 0.00 0.00 0.00 0.00 0.00 0.00 0.00 0.00 0.00 0.00 0.00 0.00 0.00 0.00 0.00 0.00 0.00 0.00 0.00 0.00 0.00 0.00 0.06 0.06 0.00 0.05 0.00 0.02 0.07 0.03 0.01 0.00 0.00 0.01 0.01 0.00 0.04
0.00 0.00 0.00 0.00 0.00 0.00 0.00 0.00 0.00 0.00 0.00 0.00 0.00 0.00 0.00 0.00 0.00 0.00 0.00 0.00 0.00 0.00 0.00 0.00 0.00 0.00 0.00 0.00 0.00 0.00 0.00 0.00 0.00 0.00 0.01 0.05 0.03 0.04 0.02 0.01 0.07 0.07 0.06 0.02 0.00 0.00 0.00 0.01 0.00
0.00 0.00 0.00 0.00 0.00 0.00 0.00 0.00 0.00 0.00 0.00 0.00 0.00 0.00 0.00 0.00 0.00 0.00 0.00 0.00 0.00 0.00 0.00 0.00 0.00 0.00 0.00 0.00 0.00 0.00 0.00 0.00 0.01 0.01 0.00 0.02 0.09 0.07 0.02 0.00 0.01 0.02 0.01 0.01 0.01 0.01 0.02 0.02 0.01
0.00 0.00 0.00 0.00 0.00 0.00 0.00 0.00 0.00 0.00 0.00 0.00 0.00 0.00 0.00 0.00 0.00 0.00 0.00 0.00 0.01 0.00 0.00 0.00 0.00 0.00 0.00 0.00 0.00 0.00 0.02 0.00 0.04 0.08 0.07 0.02 0.01 0.09 0.05 0.00 0.00 0.00 0.00 0.01 0.01 0.03 0.05 0.02 0.03
0.00 0.00 0.00 0.00 0.00 0.00 0.00 0.00 0.00 0.00 0.00 0.00 0.00 0.00 0.00 0.00 0.00 0.00 0.00 0.00 0.01 0.00 0.00 0.00 0.00 0.00 0.00 0.00 0.00 0.00 0.02 0.01 0.01 0.08 0.05 0.07 0.04 0.00 0.01 0.01 0.00 0.04 0.03 0.09 0.05 0.01 0.06 0.01 0.03
0.00 0.00 0.00 0.00 0.00 0.00 0.00 0.00 0.00 0.00 0.00 0.00 0.00 0.00 0.00 0.00 0.00 0.00 0.00 0.01 0.00 0.00 0.00 0.00 0.00 0.00 0.00 0.01 0.01 0.01 0.00 0.01 0.00 0.01 0.08 0.10 0.06 0.04 0.12 0.16 0.12 0.06 0.07 0.09 0.08 0.08 0.11 0.06 0.01
0.00 0.00 0.00 0.00 0.00 0.00 0.00 0.00 0.00 0.00 0.00 0.00 0.00 0.00 0.00 0.00 0.00 0.00 0.00 0.00 0.00 0.00 0.00 0.00 0.00 0.00 0.00 0.00 0.03 0.01 0.02 0.09 0.16 0.05 0.10 0.21 0.14 0.15 0.17 0.19 0.16 0.07 0.01 0.00 0.00 0.04 0.21 0.11 0.02
0.00 0.00 0.00 0.00 0.00 0.00 0.00 0.00 0.00 0.00 0.00 0.00 0.00 0.00 0.00 0.00 0.00 0.00 0.00 0.00 0.00 0.00 0.00 0.00 0.02 0.00 0.02 0.03 0.02 0.03 0.10 0.18 0.26 0.20 0.16 0.15 0.13 0.11 0.08 0.16 0.16 0.11 0.14 0.06 0.00 0.00 0.11 0.13 0.03
0.00 0.00 0.00 0.00 0.00 0.00 0.00 0.00 0.00 0.00 0.00 0.00 0.00 0.00 0.00 0.00 0.00 0.00 0.00 0.00 0.00 0.00 0.00 0.00 0.00 0.00 0.00 0.05 0.05 0.03 0.03 0.07 0.07 0.09 0.08 0.04 0.02 0.00 0.01 0.05 0.16 0.27 0.23 0.11 0.00 0.00 0.07 0.12 0.03
0.00 0.00 0.00 0.00 0.00 0.00 0.00 0.00 0.00 0.00 0.00 0.00 0.00 0.00 0.00 0.00 0.00 0.00 0.00 0.00 0.00 0.00 0.00 0.00 0.00 0.00 0.00 0.05 0.07 0.05 0.03 0.05 0.08 0.08 0.06 0.04 0.02 0.00 0.00 0.01 0.12 0.17 0.09 0.06 0.00 0.00 0.00 0.01 0.00
0.00 0.00 0.00 0.00 0.00 0.00 0.00 0.00 0.00 0.00 0.00 0.00 0.00 0.00 0.00 0.00 0.00 0.00 0.00 0.00 0.00 0.00 0.00 0.00 0.00 0.00 0.00 0.02 0.05 0.04 0.03 0.03 0.04 0.05 0.03 0.03 0.01 0.00 0.00 0.00 0.00 0.03 0.02 0.00 0.01 0.00 0.00 0.00 0.00
0.00 0.00 0.00 0.00 0.00 0.00 0.00 0.00 0.00 0.00 0.00 0.00 0.00 0.00 0.00 0.00 0.00 0.00 0.00 0.00 0.00 0.00 0.00 0.00 0.00 0.00 0.00 0.00 0.01 0.03 0.05 0.04 0.02 0.03 0.01 0.01 0.00 0.00 0.00 0.00 0.01 0.02 0.00 0.02 0.02 0.00 0.00 0.00 0.00
0.00 0.00 0.00 0.00 0.00 0.00 0.00 0.00 0.00 0.00 0.00 0.00 0.00 0.00 0.00 0.00 0.00 0.00 0.00 0.00 0.00 0.00 0.00 0.00 0.00 0.00 0.00 0.00 0.00 0.01 0.01 0.01 0.00 0.00 0.00 0.00 0.00 0.00 0.00 0.00 0.02 0.02 0.01 0.02 0.00 0.00 0.00 0.00 0.00
0.00 0.00 0.00 0.00 0.00 0.00 0.00 0.00 0.00 0.00 0.00 0.00 0.00 0.00 0.00 0.00 0.00 0.00 0.00 0.00 0.00 0.00 0.00 0.00 0.00 0.00 0.00 0.00 0.00 0.00 0.00 0.01 0.00 0.00 0.00 0.00 0.00 0.00 0.04 0.02 0.06 0.00 0.00 0.01 0.00 0.00 0.00 0.00 0.00
0.00 0.00 0.00 0.00 0.00 0.00 0.00 0.00 0.00 0.00 0.00 0.00 0.00 0.00 0.00 0.00 0.00 0.00 0.00 0.00 0.00 0.00 0.00 0.00 0.00 0.00 0.00 0.00 0.00 0.00 0.00 0.00 0.01 0.00 0.00 0.00 0.01 0.01 0.03 0.03 0.01 0.00 0.00 0.01 0.02 0.02 0.03 0.00 0.00
0.00 0.00 0.00 0.00 0.00 0.00 0.00 0.00 0.00 0.00 0.00 0.00 0.00 0.00 0.00 0.00 0.00 0.00 0.00 0.00 0.00 0.00 0.00 0.00 0.00 0.00 0.00 0.00 0.00 0.00 0.00 0.00 0.00 0.00 0.00 0.00 0.00 0.05 0.01 0.01 0.01 0.00 0.00 0.00 0.09 0.13 0.12 0.04 0.00
0.00 0.00 0.00 0.00 0.00 0.00 0.00 0.00 0.00 0.00 0.00 0.00 0.00 0.00 0.00 0.00 0.00 0.00 0.00 0.00 0.00 0.00 0.00 0.00 0.00 0.00 0.00 0.00 0.00 0.00 0.00 0.00 0.00 0.00 0.00 0.00 0.00 0.00 0.00 0.00 0.02 0.01 0.00 0.02 0.11 0.12 0.13 0.15 0.03
MSLP
1007.16 1007.55 1008.05 1008.20 1008.70 1008.56 1009.07 1008.47 1007.47 1007.39 1007.42 1007.20 1007.19 1007.60 1008.44 1009.04 1009.61 1011.10 1010.92 1011.05 1011.38 1012.39 1012.83 1013.31 1013.42 1013.76 1014.15 1014.48 1014.75 1014.90 1014.98 1014.95 1015.11 1015.34 1015.61 1015.82 1015.94 1015.95 1016.03 1016.19 1016.38 1016.65 1016.84 1016.89 1016.86 1016.86 1016.97 1017.17 1017.36
1007.28 1007.93 1008.23 1008.29 1008.82 1009.09 1009.19 1008.46 1007.73 1007.15 1007.06 1006.97 1007.18 1007.58 1008.48 1009.30 1009.81 1010.59 1011.17 1011.41 1011.53 1012.25 1012.91 1013.43 1013.68 1014.03 1014.50 1014.83 1015.04 1015.18 1015.33 1015.38 1015.44 1015.54 1015.77 1015.99 1016.17 1016.37 1016.40 1016.38 1016.53 1016.70 1016.89 1017.01 1017.09 1017.10 1017.22 1017.36 1017.45
1007.48 1007.46 1008.11 1008.73 1009.27 1009.26 1009.07 1008.41 1007.66 1007.32 1006.98 1006.91 1007.38 1007.74 1008.60 1009.68 1010.07 1010.69 1010.94 1011.42 1011.66 1012.52 1013.05 1013.56 1013.88 1014.28 1014.65 1015.00 1015.22 1015.34 1015.55 1015.68 1015.76 1015.79 1015.87 1016.07 1016.32 1016.62 1016.80 1016.69 1016.70 1016.82 1017.02 1017.22 1017.45 1017.47 1017.53 1017.56 1017.66
1007.16 1007.86 1008.20 1008.57 1009.33 1008.95 1008.59 1008.43 1007.80 1007.64 1007.19 1007.16 1007.57 1008.53 1009.25 1009.70 1010.33 1010.65 1011.25 1011.69 1012.10 1012.83 1013.21 1013.53 1013.98 1014.49 1014.78 1015.06 1015.35 1015.59 1015.66 1015.89 1015.98 1016.01 1016.08 1016.28 1016.49 1016.77 1017.03 1017.08 1017.11 1017.02 1017.18 1017.44 1017.69 1017.80 1017.83 1017.89 1017.97
1007.05 1007.89 1008.67 1008.89 1008.77 1008.17 1007.28 1007.34 1007.34 1007.35 1007.27 1007.46 1007.71 1009.02 1009.94 1010.41 1010.50 1011.03 1011.56 1011.98 1012.33 1013.05 1013.39 1013.71 1014.11 1014.60 1014.96 1015.22 1015.44 1015.60 1015.73 1015.98 1016.14 1016.18 1016.27 1016.38 1016.60 1016.89 1017.13 1017.27 1017.32 1017.32 1017.43 1017.67 1017.89 1018.05 1018.17 1018.24 1018.26
1007.31 1008.16 1008.66 1008.65 1008.09 1007.03 1006.32 1006.33 1007.03 1007.23 1007.16 1007.51 1008.23 1009.18 1010.58 1010.75 1010.85 1011.39 1011.81 1012.41 1012.59 1013.14 1013.56 1013.91 1014.25 1014.63 1015.05 1015.45 1015.55 1015.69 1015.79 1016.13 1016.29 1016.36 1016.43 1016.55 1016.70 1017.00 1017.20 1017.39 1017.46 1017.62 1017.71 1017.84 1017.99 1018.19 1018.41 1018.58 1018.50
1007.24 1008.24 1008.58 1008.21 1007.67 1006.61 1006.05 1005.96 1006.49 1006.63 1006.93 1007.42 1007.92 1009.51 1010.81 1011.13 1011.30 1011.64 1012.11 1012.57 1013.06 1013.28 1013.75 1014.16 1014.47 1014.71 1015.00 1015.36 1015.64 1015.79 1015.90 1016.13 1016.23 1016.41 1016.61 1016.66 1016.84 1017.05 1017.23 1017.43 1017.60 1017.83 1017.96 1018.06 1018.24 1018.36 1018.47 1018.61 1018.68
1007.06 1007.87 1008.23 1007.86 1007.33 1006.30 1005.50 1005.47 1005.61 1006.15 1006.86 1007.12 1007.68 1009.16 1010.40 1010.87 1011.46 1011.98 1012.50 1012.92 1013.41 1013.68 1013.91 1014.39 1014.69 1014.87 1015.07 1015.33 1015.60 1015.86 1015.92 1016.05 1016.26 1016.44 1016.73 1016.74 1016.97 1017.09 1017.27 1017.34 1017.56 1017.85 1018.10 1018.18 1018.34 1018.46 1018.63 1018.67 1018.79
1006.74 1007.47 1007.57 1007.19 1006.67 1005.76 1005.24 1005.25 1005.46 1005.65 1006.51 1007.13 1007.68 1008.51 1009.00 1010.56 1011.44 1012.09 1012.74 1013.27 1013.57 1013.92 1014.14 1014.30 1014.67 1014.98 1015.20 1015.38 1015.43 1015.63 1015.80 1016.01 1016.25 1016.49 1016.77 1016.98 1017.30 1017.45 1017.56 1017.55 1017.66 1017.85 1018.08 1018.21 1018.41 1018.61 1018.71 1018.80 1018.85
1006.64 1006.93 1006.39 1005.84 1005.30 1005.08 1005.02 1005.08 1005.24 1006.00 1006.76 1007.43 1008.33 1008.91 1009.54 1010.53 1011.32 1011.80 1012.40 1012.88 1013.28 1013.63 1013.96 1014.21 1014.52 1014.86 1015.18 1015.31 1015.37 1015.60 1015.88 1016.04 1016.29 1016.57 1016.84 1017.15 1017.45 1017.62 1017.69 1017.75 1017.74 1017.86 1018.09 1018.25 1018.34 1018.54 1018.66 1018.76 1018.87
1006.21 1006.05 1005.54 1004.95 1004.49 1004.44 1004.79 1005.24 1005.24 1006.00 1006.78 1007.03 1008.15 1009.28 1010.02 1010.76 1011.45 1011.86 1012.29 1012.58 1012.68 1013.19 1013.65 1013.99 1014.41 1014.56 1014.93 1015.10 1015.33 1015.68 1015.99 1016.21 1016.42 1016.76 1017.05 1017.26 1017.55 1017.72 1017.84 1017.94 1017.88 1017.98 1018.16 1018.44 1018.41 1018.72 1018.88 1019.09 1019.18
1005.60 1005.08 1004.78 1004.41 1004.05 1004.37 1004.68 1004.83 1005.22 1005.81 1005.95 1006.08 1007.66 1008.45 1009.71 1010.65 1011.29 1011.65 1012.02 1012.38 1012.69 1012.99 1013.26 1013.77 1014.03 1014.45 1014.71 1014.90 1015.25 1015.61 1015.95 1016.20 1016.51 1016.74 1017.11 1017.40 1017.66 1017.89 1017.94 1018.04 1018.04 1018.16 1018.32 1018.53 1018.57 1018.59 1018.75 1018.94 1019.09
1005.11 1004.66 1004.45 1003.63 1003.65 1003.82 1004.33 1004.75 1005.41 1006.07 1006.13 1006.54 1007.84 1008.75 1009.37 1009.97 1010.52 1010.87 1011.23 1011.98 1012.49 1012.82 1013.08 1013.31 1013.46 1013.95 1014.45 1014.79 1014.96 1015.40 1015.74 1015.98 1016.32 1016.60 1016.95 1017.25 1017.52 1017.74 1017.81 1017.92 1018.02 1018.09 1018.26 1018.46 1018.54 1018.52 1018.60 1018.71 1018.95
1004.13 1003.80 1003.88 1003.68 1003.68 1003.65 1004.17 1005.13 1005.51 1006.45 1006.56 1007.11 1007.93 1008.65 1009.21 1009.35 1009.62 1010.52 1011.08 1011.31 1011.87 1012.40 1012.66 1013.08 1013.39 1013.62 1013.97 1014.64 1014.76 1014.99 1015.39 1015.64 1016.08 1016.46 1016.73 1017.04 1017.22 1017.47 1017.59 1017.71 1017.87 1018.07 1018.12 1018.17 1018.39 1018.50 1018.59 1018.58 1018.73
1004.09 1004.07 1003.79 1003.94 1004.00 1004.14 1004.41 1005.55 1005.72 1006.02 1006.67 1007.30 1007.99 1008.58 1009.06 1009.55 1010.03 1009.97 1010.19 1010.41 1010.58 1011.45 1012.13 1012.73 1013.04 1013.59 1013.77 1014.21 1014.51 1014.82 1015.05 1015.45 1015.77 1016.07 1016.40 1016.81 1017.07 1017.26 1017.40 1017.55 1017.64 1017.81 1017.96 1018.15 1018.22 1018.34 1018.42 1018.50 1018.54
1004.46 1004.46 1004.49 1004.22 1004.16 1004.35 1004.70 1005.13 1005.78 1006.11 1006.57 1007.28 1008.00 1008.24 1008.52 1009.05 1009.21 1009.48 1009.57 1009.71 1010.15 1010.52 1011.21 1012.05 1012.87 1013.19 1013.71 1013.91 1014.36 1014.64 1014.88 1015.18 1015.53 1015.89 1016.17 1016.34 1016.78 1016.96 1017.24 1017.39 1017.46 1017.65 1017.76 1017.91 1017.92 1018.17 1018.35 1018.46 1018.53
1005.71 1005.44 1005.23 1004.78 1004.59 1004.99 1005.32 1005.05 1005.25 1006.11 1006.67 1007.08 1007.76 1007.87 1008.20 1008.69 1008.78 1008.82 1008.98 1009.57 1010.17 1010.61 1010.63 1011.33 1012.01 1012.50 1013.02 1013.55 1013.89 1014.38 1014.69 1014.90 1015.16 1015.54 1015.90 1015.99 1016.37 1016.68 1016.99 1017.13 1017.11 1017.39 1017.49 1017.64 1017.81 1017.96 1018.07 1018.35 1018.56
1006.41 1005.96 1005.53 1005.33 1004.87 1005.24 1005.50 1005.26 1005.45 1006.32 1006.61 1007.07 1007.50 1007.63 1008.00 1008.17 1007.87 1008.33 1008.83 1009.31 1009.73 1010.08 1010.73 1010.76 1011.39 1012.01 1012.83 1013.62 1014.08 1014.34 1014.72 1014.73 1014.69 1015.00 1015.22 1015.67 1016.19 1016.38 1016.50 1016.78 1016.91 1017.20 1017.40 1017.54 1017.63 1017.74 1017.90 1017.99 1018.20
1006.02 1006.01 1005.71 1004.78 1004.68 1004.83 1004.96 1005.38 1005.33 1006.06 1006.60 1006.92 1007.22 1007.52 1007.63 1007.60 1007.52 1008.18 1008.69 1008.86 1009.41 1009.86 1010.09 1010.66 1011.06 1011.71 1012.49 1013.22 1013.83 1014.29 1014.13 1014.61 1014.72 1014.60 1014.76 1015.23 1015.76 1016.14 1016.25 1016.61 1016.77 1016.98 1017.39 1017.30 1017.41 1017.65 1017.91 1018.02 1018.13
1005.91 1005.85 1005.49 1004.50 1003.91 1004.43 1004.57 1005.17 1005.18 1005.68 1005.68 1006.15 1006.54 1007.07 1007.17 1007.31 1007.31 1007.90 1008.18 1008.63 1008.70 1009.11 1009.70 1010.33 1010.46 1011.13 1011.91 1012.61 1013.03 1013.50 1013.86 1014.16 1014.76 1014.61 1014.78 1015.20 1015.37 1015.92 1016.22 1016.28 1016.37 1016.68 1017.03 1017.00 1017.05 1017.33 1017.66 1017.74 1017.86
1005.64 1005.78 1005.49 1005.50 1004.77 1004.91 1005.27 1005.80 1005.56 1005.08 1005.38 1005.81 1005.98 1006.32 1006.71 1006.80 1007.18 1007.42 1007.74 1008.11 1008.43 1008.71 1009.20 1009.50 1009.94 1010.50 1011.18 1011.92 1012.56 1013.27 1013.78 1014.26 1014.24 1014.91 1015.08 1015.05 1015.30 1015.57 1015.78 1016.01 1016.13 1016.30 1016.46 1016.64 1016.57 1016.95 1017.33 1017.48 1017.54
1005.53 1005.20 1005.39 1005.62 1005.88 1006.07 1006.03 1006.54 1005.77 1005.34 1005.52 1005.50 1005.59 1006.01 1006.00 1006.26 1006.81 1007.14 1007.50 1008.04 1008.16 1008.29 1008.67 1009.21 1009.67 1009.90 1010.65 1011.32 1011.90 1012.51 1012.94 1013.54 1013.54 1013.77 1014.22 1014.89 1014.89 1015.20 1015.26 1015.33 1015.44 1015.82 1015.87 1016.06 1016.21 1016.47 1016.74 1016.99 1017.00
1005.42 1005.13 1005.62 1005.85 1006.51 1007.00 1007.01 1007.36 1005.73 1005.50 1005.11 1004.75 1004.82 1005.03 1005.03 1005.40 1006.21 1006.77 1007.04 1007.25 1007.50 1007.87 1008.25 1008.56 1009.20 1009.72 1010.19 1010.69 1011.26 1011.99 1012.40 1012.90 1013.21 1013.84 1014.06 1014.35 1014.73 1014.75 1014.73 1014.80 1014.94 1015.27 1015.41 1015.48 1015.70 1016.05 1016.30 1016.40 1016.53
1005.15 1005.75 1006.43 1007.17 1007.84 1008.29 1008.08 1008.06 1006.22 1005.56 1004.58 1003.89 1003.67 1004.03 1004.08 1004.83 1005.65 1006.28 1006.60 1006.94 1007.21 1007.52 1008.00 1008.35 1008.89 1009.35 1009.80 1010.29 1010.81 1011.19 1011.82 1012.41 1013.19 1013.79 1014.08 1014.33 1014.30 1014.36 1014.43 1014.41 1014.43 1014.53 1014.78 1014.93 1015.04 1015.32 1015.66 1015.90 1016.10
1005.22 1006.59 1007.73 1008.71 1009.16 1009.36 1008.55 1008.14 1005.83 1004.48 1003.83 1003.30 1003.08 1003.12 1003.12 1003.72 1004.93 1005.63 1006.27 1006.68 1006.86 1007.24 1007.76 1008.16 1008.65 1009.14 1009.50 1009.95 1010.39 1010.84 1011.54 1012.00 1012.57 1013.21 1013.64 1013.85 1013.99 1014.10 1013.98 1014.07 1014.07 1014.01 1014.15 1014.19 1014.42 1014.79 1015.05 1015.42 1015.65
1005.29 1006.57 1008.00 1008.99 1009.92 1009.68 1008.86 1007.46 1004.96 1003.71 1003.02 1003.01 1002.97 1002.78 1002.85 1003.16 1004.20 1004.80 1005.37 1005.91 1006.28 1006.62 1007.19 1007.77 1008.39 1008.93 1009.29 1009.71 1009.98 1010.48 1011.02 1011.68 1012.12 1012.70 1012.99 1013.29 1013.49 1013.54 1013.52 1013.62 1013.64 1013.65 1013.72 1013.85 1014.06 1014.46 1014.65 1014.84 1015.27
1005.46 1006.33 1006.65 1008.71 1010.20 1009.99 1008.75 1006.89 1004.54 1003.42 1003.17 1002.85 1002.70 1002.59 1002.38 1002.74 1003.63 1004.24 1004.63 1005.16 1005.60 1006.10 1006.61 1007.15 1007.81 1008.44 1009.01 1009.39 1009.69 1010.12 1010.82 1011.47 1011.91 1012.21 1012.43 1012.88 1012.95 1013.04 1013.17 1013.31 1013.35 1013.35 1013.56 1013.69 1013.75 1014.02 1014.21 1014.38 1014.74
1004.09 1005.05 1006.85 1008.37 1009.78 1010.13 1009.12 1007.61 1005.44 1003.91 1003.23 1002.99 1002.64 1002.33 1002.05 1002.53 1003.13 1003.62 1004.02 1004.55 1005.05 1005.47 1006.18 1006.85 1007.48 1008.04 1008.46 1009.07 1009.45 1010.05 1010.54 1011.05 1011.30 1011.69 1011.94 1012.20 1012.40 1012.53 1012.76 1012.91 1013.00 1013.19 1013.32 1013.55 1013.52 1013.67 1013.80 1014.09 1014.35
1004.55 1005.23 1006.73 1008.04 1008.74 1009.26 1008.99 1007.52 1004.54 1003.63 1003.15 1002.63 1002.27 1002.03 1002.07 1002.26 1002.89 1003.40 1003.77 1004.21 1004.86 1005.30 1005.89 1006.63 1007.42 1007.88 1008.35 1008.79 1009.22 1009.97 1010.35 1010.67 1011.06 1011.47 1011.54 1011.75 1011.94 1012.10 1012.42 1012.47 1012.82 1012.82 1013.08 1013.28 1013.42 1013.35 1013.44 1013.78 1014.14
1003.68 1004.46 1005.70 1007.45 1008.78 1008.99 1008.02 1005.53 1003.47 1002.92 1002.68 1002.56 1001.97 1001.92 1001.98 1002.11 1002.66 1003.37 1003.78 1004.26 1004.91 1005.46 1005.77 1006.54 1007.20 1007.72 1008.15 1008.46 1009.00 1009.46 1009.89 1010.41 1010.71 1010.99 1011.18 1011.30 1011.46 1011.57 1011.97 1012.23 1012.52 1012.68 1012.79 1012.98 1013.15 1013.14 1013.24 1013.68 1013.78
Thickness
5830 5827 5824 5814 5785 5781 5765 5779 5802 5793 5792 5807 5814 5803 5792 5792 5786 5764 5794 5798 5794 5787 5782 5777 5777 5773 5769 5766 5764 5764 5764 5766 5765 5764 5761 5759 5758 5759 5759 5758 5756 5753 5750 5750 5751 5751 5750 5748 5748
5830 5826 5818 5801 5772 5762 5765 5785 5787 5797 5807 5813 5814 5809 5794 5784 5797 5790 5788 5794 5793 5788 5782 5777 5775 5772 5767 5763 5762 5762 5762 5762 5762 5762 5760 5758 5757 5756 5757 5758 5756 5754 5753 5751 5750 5749 5747 5747 5747
5832 5832 5805 5783 5769 5761 5766 5785 5794 5802 5813 5813 5808 5813 5801 5786 5796 5794 5798 5795 5792 5786 5781 5777 5773 5769 5766 5762 5760 5759 5758 5758 5758 5759 5759 5758 5756 5754 5753 5754 5755 5754 5753 5751 5748 5747 5746 5746 5745
5829 5818 5809 5779 5770 5782 5784 5787 5802 5802 5809 5816 5811 5793 5801 5805 5796 5800 5798 5795 5790 5783 5779 5777 5772 5768 5765 5763 5760 5758 5758 5757 5757 5757 5757 5756 5755 5753 5750 5750 5751 5753 5752 5749 5746 5745 5745 5744 5743
5828 5808 5781 5777 5780 5789 5806 5808 5808 5799 5805 5807 5812 5789 5787 5798 5802 5799 5795 5792 5787 5782 5777 5775 5772 5768 5764 5762 5760 5759 5758 5756 5756 5756 5755 5754 5753 5751 5749 5749 5749 5750 5750 5747 5745 5743 5742 5741 5742
5807 5806 5779 5775 5786 5808 5819 5823 5809 5807 5809 5808 5800 5793 5785 5798 5797 5795 5794 5788 5786 5781 5776 5773 5770 5767 5763 5759 5759 5758 5757 5754 5753 5754 5753 5751 5751 5749 5749 5748 5748 5747 5747 5745 5743 5742 5741 5740 5740
5806 5791 5782 5786 5792 5805 5815 5826 5813 5810 5809 5805 5812 5784 5786 5790 5795 5795 5792 5787 5783 5778 5775 5771 5768 5766 5764 5760 5759 5757 5757 5755 5754 5753 5750 5750 5750 5750 5749 5749 5748 5746 5745 5743 5741 5741 5740 5740 5740
5813 5802 5787 5790 5789 5800 5826 5829 5831 5819 5808 5824 5819 5786 5782 5793 5795 5792 5788 5784 5779 5777 5773 5769 5767 5766 5765 5762 5760 5758 5758 5757 5755 5753 5748 5750 5749 5749 5750 5751 5749 5747 5745 5744 5742 5741 5740 5741 5740
5827 5790 5784 5793 5796 5811 5831 5821 5831 5835 5819 5821 5820 5809 5811 5802 5797 5789 5783 5778 5776 5774 5773 5771 5767 5766 5764 5762 5762 5760 5759 5758 5755 5753 5750 5748 5748 5748 5749 5751 5749 5747 5745 5745 5744 5741 5738 5739 5739
5808 5791 5801 5820 5824 5819 5825 5822 5826 5818 5812 5809 5805 5809 5809 5801 5795 5790 5783 5778 5776 5775 5774 5773 5769 5766 5764 5762 5763 5762 5759 5758 5757 5754 5752 5750 5749 5749 5750 5749 5749 5748 5746 5745 5746 5744 5741 5739 5740
5811 5798 5818 5827 5837 5836 5824 5822 5833 5815 5804 5815 5803 5800 5800 5794 5791 5788 5784 5782 5782 5780 5777 5775 5770 5768 5766 5763 5763 5761 5759 5756 5756 5753 5752 5751 5749 5749 5749 5749 5749 5748 5745 5744 5744 5742 5741 5737 5737
5808 5825 5829 5833 5840 5832 5823 5833 5824 5821 5825 5835 5819 5813 5802 5793 5789 5788 5785 5783 5781 5780 5779 5777 5773 5769 5767 5766 5763 5761 5758 5756 5755 5753 5751 5751 5750 5749 5748 5748 5748 5748 5746 5744 5744 5744 5743 5741 5739
5813 5822 5829 5841 5840 5838 5836 5826 5821 5819 5829 5832 5821 5814 5806 5801 5797 5797 5795 5789 5783 5779 5779 5780 5781 5775 5768 5766 5765 5761 5759 5758 5755 5753 5752 5752 5752 5750 5750 5750 5749 5749 5747 5745 5744 5745 5745 5744 5741
5832 5832 5831 5837 5833 5838 5826 5820 5824 5817 5827 5823 5818 5812 5809 5808 5805 5799 5795 5794 5789 5785 5781 5780 5779 5779 5773 5767 5766 5764 5762 5761 5757 5754 5753 5751 5753 5753 5752 5751 5751 5749 5748 5748 5746 5745 5745 5745 5743
5832 5817 5826 5826 5829 5826 5830 5809 5810 5822 5824 5818 5815 5813 5811 5808 5803 5801 5799 5799 5800 5794 5787 5781 5780 5777 5775 5770 5766 5764 5764 5761 5758 5756 5754 5752 5751 5752 5752 5752 5752 5751 5750 5748 5748 5746 5746 5745 5743
5811 5810 5791 5818 5826 5826 5825 5787 5812 5823 5822 5815 5813 5812 5812 5809 5806 5804 5802 5800 5800 5798 5795 5789 5781 5778 5773 5770 5765 5763 5762 5760 5758 5755 5754 5752 5752 5752 5752 5752 5752 5751 5749 5748 5749 5749 5747 5746 5744
5787 5776 5787 5798 5822 5816 5813 5800 5821 5825 5821 5815 5812 5814 5812 5807 5807 5807 5804 5795 5794 5792 5795 5793 5789 5783 5777 5773 5768 5762 5760 5758 5758 5756 5755 5754 5753 5753 5752 5752 5753 5751 5750 5750 5750 5750 5749 5747 5745
5769 5774 5785 5784 5811 5809 5802 5804 5818 5818 5819 5816 5813 5814 5809 5807 5810 5807 5799 5794 5793 5792 5790 5792 5791 5788 5779 5772 5767 5763 5759 5758 5759 5758 5757 5756 5752 5753 5756 5754 5753 5751 5750 5751 5751 5750 5750 5750 5748
5790 5784 5782 5802 5816 5808 5806 5807 5815 5816 5816 5814 5812 5809 5807 5809 5813 5807 5797 5795 5798 5795 5793 5789 5788 5787 5781 5773 5766 5760 5761 5757 5758 5760 5759 5757 5753 5752 5754 5751 5751 5750 5749 5751 5752 5750 5748 5747 5748
5789 5785 5783 5805 5822 5813 5812 5805 5817 5817 5820 5821 5818 5811 5810 5810 5810 5805 5801 5798 5799 5799 5794 5790 5790 5787 5782 5776 5773 5767 5763 5756 5757 5758 5757 5754 5754 5752 5751 5752 5753 5751 5750 5751 5753 5751 5747 5747 5748
5785 5783 5786 5787 5805 5813 5805 5793 5804 5821 5822 5822 5824 5823 5818 5813 5810 5807 5805 5802 5804 5802 5797 5795 5790 5789 5785 5780 5774 5766 5762 5758 5753 5755 5752 5754 5751 5751 5751 5751 5752 5752 5751 5751 5753 5752 5748 5745 5748
5770 5798 5798 5793 5786 5765 5796 5755 5792 5807 5810 5818 5822 5819 5820 5817 5815 5812 5807 5802 5804 5805 5803 5800 5793 5792 5786 5782 5777 5771 5765 5758 5761 5759 5754 5753 5752 5751 5752 5753 5754 5752 5752 5751 5753 5753 5752 5749 5748
5784 5807 5799 5794 5780 5778 5777 5759 5784 5800 5807 5816 5821 5823 5828 5825 5819 5814 5811 5810 5809 5809 5805 5802 5796 5791 5787 5784 5779 5772 5766 5763 5761 5756 5753 5754 5750 5749 5751 5753 5754 5753 5752 5753 5754 5752 5752 5752 5752
5803 5792 5779 5769 5759 5743 5763 5758 5772 5792 5810 5825 5832 5831 5835 5828 5820 5817 5816 5814 5810 5809 5803 5800 5795 5791 5788 5784 5779 5776 5770 5764 5756 5752 5749 5749 5750 5750 5750 5752 5754 5754 5753 5755 5755 5753 5752 5754 5755
5786 5763 5729 5735 5729 5732 5756 5756 5777 5815 5824 5831 5837 5838 5841 5838 5825 5820 5815 5813 5811 5807 5800 5797 5793 5788 5787 5783 5779 5775 5769 5764 5758 5753 5751 5749 5748 5749 5752 5752 5753 5756 5755 5757 5758 5753 5751 5754 5755
5776 5763 5727 5724 5719 5737 5753 5758 5790 5823 5835 5836 5839 5842 5846 5844 5831 5828 5824 5819 5815 5811 5804 5797 5791 5786 5785 5781 5778 5776 5771 5763 5761 5756 5754 5752 5751 5752 5754 5753 5755 5756 5755 5756 5757 5755 5755 5756 5756
5772 5757 5778 5732 5725 5727 5743 5773 5810 5823 5825 5832 5835 5841 5846 5846 5837 5833 5829 5824 5819 5813 5806 5800 5793 5789 5784 5781 5779 5776 5770 5763 5761 5759 5758 5753 5755 5755 5754 5753 5753 5754 5753 5753 5754 5754 5755 5757 5757
5788 5791 5756 5738 5726 5729 5733 5749 5764 5805 5823 5830 5834 5838 5846 5846 5840 5837 5834 5830 5825 5817 5809 5802 5796 5791 5787 5781 5778 5773 5769 5765 5764 5763 5762 5758 5757 5757 5753 5751 5751 5750 5751 5750 5752 5752 5754 5754 5756
5771 5765 5755 5750 5738 5726 5721 5740 5795 5808 5820 5826 5836 5842 5843 5844 5839 5837 5835 5832 5826 5818 5809 5801 5794 5790 5786 5781 5778 5771 5768 5767 5765 5762 5764 5761 5760 5758 5752 5751 5747 5748 5746 5745 5746 5748 5748 5748 5751
5788 5776 5764 5739 5744 5729 5735 5753 5820 5821 5826 5828 5834 5839 5842 5846 5841 5836 5834 5830 5822 5814 5809 5801 5794 5788 5785 5782 5776 5773 5771 5767 5765 5764 5763 5763 5762 5762 5754 5750 5747 5745 5746 5745 5742 5742 5744 5743 5746